User: anonymous   Login
Location: Newark
(54.5667°N, 9.6500°E)
Time: 07:26:28
(UTC+00:00)
Language:

SO-50 - Orbit

View from above orbital plane
View from above orbital plane
View from above satellite
View from above satellite

Ground track
Ground track

The orbit data is extracted from the following two-line orbital elements,

1 27607U 02058C   19343.92898306 -.00000042 +00000-0 +14900-4 0  9997
2 27607 064.5550 236.8821 0070198 222.2183 137.3503 14.75594036912619
Epoch (UTC): 09 December 2019 22:17:44
Eccentricity: 0.0070198
inclination: 64.5550°
perigee height: 594 km
apogee height: 692 km
right ascension of ascending node: 236.8821°
argument of perigee: 222.2183°
revolutions per day: 14.75594036
mean anomaly at epoch: 137.3503°
orbit number at epoch: 91261

The dashed part of the orbit path shows where the satellite is in the earth's shadow,  

DLR